COSMOS 2251 DEB, 35663

Orbit data source: Space-Track

COSMOS 2251 DEB, 35663 is space debris in LEO originally from a launch on Wed, 16 Jun 1993 UTC launched from the Plesetsk Missile And Space Complex (PKMTR). The debris from Iridium 33, an American commercial communications satellite, has been tracked extensively since its accidental collision with the defunct Russian satellite Cosmos 2251 in 2009. This event, occurring at high speed in low Earth orbit (LEO), generated thousands of pieces of space debris, significantly increasing the risk of further collisions. The Iridium 33 debris cloud has impacted space traffic management and orbital debris mitigation strategies, making it a subject of ongoing study in space situational awareness.

Loading next visibility...
Identifier
35663, 1993-036APE
Orbit
LEO
Country
Flag of CISCIS
Related business
Manufacturer
Unknown
Mission
Spacecraft
Bus & Motor
Unknown
Mass
Unknown
Launch date (UTC)
1993-06-16 (32 years ago)
Launch vehicle
Unknown
Launch site
Plesetsk Missile And Space Complex (PKMTR)
Object type
Payload
Rocket body
Debris
Shape & HBR
Unknown shape, 0.1 m
Radar Cross Section
Small (<0.1 m²)

Expand to show TLE details & history
Last TLE update: 7 months ago

TLE from 7 months ago
0 COSMOS 2251 DEB
1 35663U 93036APE 25072.94040569  .00013716  00000-0  27970-2 0  9992
2 35663  73.9799 290.2609 0012503 110.5686 249.6823 14.60943811828532
Epoch: 2025-03-13T22:34Z
TLE epoch observation values (Epoch: 2025-03-13T22:34:11.051Z)
Latitude
0.00002°
Longitude
139.90742°
Altitude
695.845 km
Speed
7.507 km/s
True Right ascension
19h 21m 02s
True Declination
0° 00' 00"
Sunlit
Object was in daylight at epoch
Visualization orbit readout
Latitude
Unknown
Longitude
Unknown
Altitude
Unknown
Speed
Unknown
Apparent Right ascension
Unknown
Apparent Declination
Unknown
Sunlit
N/A
Visualization observer readout
Local Sidereal Time
21:57:16
Azimuth
Unknown
Elevation
Unknown
Doppler factor
Unknown
Orbital elements
Apogee altitude
696.564 km
Perigee altitude
678.895 km
Semi-major axis
7,065.866 km
Eccentricity
0.00125
Inclination
73.9799°
RAAN
290.2609°
Arg. of periapsis
110.5686°
True anomaly
249.54801°
Mean anomaly
249.6823°
Eccentric anomaly
249.61515°
Mean motion
3.65422 °/min
Orbital period
98.52 mins
BSTAR
0.002797
Loading maneuver chart data...
Computing Atmospheric mass density...

Documentation

Showing up to 5 results
|